Theta_e
314 317 319 319 316 311 309 311 313 313 312 311 313 314 313 314 313 312 313 311 311 311 311 311 311 310 310 309 306 305 304 303 302 302 301 300 299 299 298 298 298 297 297 297 296 296 294 294 294 293 293 293 294 294 293 294 294 294 294 294 294 294 294 294 294 294 295 295 295 295 295 295 296 296 297 297 297 297 298 297 295 295 297 299 302 306
315 319 319 315 311 309 310 311 311 311 311 311 313 314 314 315 314 312 313 312 310 311 311 310 310 309 309 309 306 305 304 302 302 301 300 300 299 298 298 298 297 297 297 296 296 295 294 294 293 293 293 293 293 293 293 293 294 294 293 293 294 294 294 294 294 294 294 294 294 295 295 295 295 295 296 297 297 297 298 298 297 296 295 296 298 302
317 318 315 310 310 310 310 311 311 311 312 313 314 314 315 316 315 313 313 312 310 310 309 309 309 308 309 309 306 304 303 302 301 300 300 299 299 298 298 298 297 297 296 296 296 295 294 293 293 293 293 293 293 293 293 293 293 293 293 293 293 294 294 294 293 293 293 294 294 294 294 294 294 295 295 296 297 297 297 298 297 297 296 296 296 299
316 317 312 310 311 310 310 312 312 311 312 315 315 315 316 316 315 314 313 311 310 310 309 309 309 308 309 308 306 304 303 301 301 300 299 299 298 298 298 297 297 296 296 295 295 295 294 293 293 293 293 293 293 293 293 293 293 293 293 293 293 293 293 293 293 293 293 293 293 293 293 294 294 294 295 295 296 296 297 297 297 297 297 296 295 296
315 313 310 310 312 311 312 313 314 313 314 315 316 316 315 315 313 312 312 310 309 310 310 309 309 308 309 307 305 303 302 301 300 300 299 298 298 298 297 297 296 296 295 295 295 294 294 293 293 292 293 293 293 293 293 293 293 293 293 293 293 293 293 293 292 292 292 292 292 292 293 293 294 294 294 295 295 295 296 297 297 297 297 297 296 295
313 311 311 313 314 314 316 314 315 316 314 313 316 316 313 311 311 312 313 311 310 310 309 308 309 310 310 308 305 303 301 300 300 299 299 298 298 297 297 296 296 295 295 295 295 294 294 293 293 293 292 293 293 293 293 293 293 293 293 293 293 292 292 292 292 292 292 292 291 292 292 293 293 294 294 294 295 295 295 296 297 297 297 297 297 295
311 309 312 315 314 315 317 315 315 316 313 312 314 313 310 309 311 312 312 311 311 311 310 309 309 308 309 309 306 303 302 301 299 299 299 298 298 297 296 296 295 295 294 294 294 294 293 293 293 293 292 292 292 293 293 293 293 293 292 292 292 292 291 291 291 292 291 291 290 291 291 292 292 293 294 294 294 294 295 295 296 297 297 297 298 296
310 311 313 314 313 314 314 313 315 315 313 313 311 309 309 309 311 311 311 311 310 310 310 310 309 307 307 309 307 305 303 301 299 299 299 298 297 296 296 296 295 295 294 294 294 293 293 293 293 293 292 292 292 293 293 293 292 292 292 292 292 291 291 290 291 291 291 290 289 289 290 291 291 292 293 293 294 294 295 295 295 297 297 297 298 297
311 314 315 314 314 313 313 312 313 313 313 311 308 307 308 308 309 310 310 310 310 310 309 309 310 308 307 308 307 305 304 301 299 299 299 298 297 296 296 295 295 294 294 294 294 293 293 293 293 293 292 292 292 293 293 292 292 292 292 292 291 291 290 290 290 290 290 289 288 288 289 290 291 291 292 292 293 294 294 295 295 296 297 297 298 298
311 312 311 311 312 312 311 310 311 312 312 309 308 310 310 310 311 310 310 311 309 309 307 307 310 309 308 309 308 306 305 301 299 299 298 297 296 296 295 295 294 294 294 293 293 293 293 293 293 292 292 292 292 292 292 292 292 292 292 291 291 290 289 289 289 289 289 288 287 287 288 289 289 290 291 292 292 293 294 294 295 295 297 297 298 299
309 307 307 308 311 310 308 308 309 309 309 308 309 311 311 311 311 309 311 310 307 308 307 307 309 308 308 309 307 306 304 302 300 299 298 297 296 296 295 294 294 294 293 293 293 293 293 293 292 292 292 292 292 292 292 292 292 291 291 290 290 289 288 288 288 287 286 286 286 286 286 287 287 288 289 290 291 293 294 294 295 295 296 298 298 298
310 309 309 308 308 308 308 308 308 307 307 308 310 309 309 311 309 308 310 309 307 308 307 305 307 307 308 308 305 302 302 301 300 298 297 297 296 295 295 294 294 294 293 293 293 293 293 293 292 292 292 292 292 291 291 291 291 290 289 289 289 288 287 287 286 285 285 285 285 284 284 285 285 286 287 288 290 291 292 293 294 295 296 297 298 298
313 313 312 309 307 308 310 310 310 310 309 309 308 308 309 311 310 310 312 312 310 308 304 303 304 304 305 306 303 301 299 299 299 297 296 296 295 295 295 294 294 294 293 293 293 293 292 292 292 292 292 291 291 291 291 291 290 290 289 288 288 287 286 286 285 284 284 284 284 284 284 284 284 285 286 287 288 289 290 291 292 294 296 297 298 298
316 314 311 310 308 308 310 310 311 311 309 308 308 308 309 310 309 309 310 311 311 309 304 303 303 303 303 304 303 300 298 297 297 296 296 295 295 295 294 294 294 293 293 293 292 292 292 292 292 292 291 291 291 291 291 290 290 289 288 287 287 286 286 285 284 284 283 283 283 283 283 283 283 283 284 285 286 288 290 291 292 294 297 298 298 298
316 316 313 311 309 309 311 310 308 308 307 307 307 306 308 309 308 308 308 308 310 308 305 303 303 304 304 303 301 298 297 297 297 296 296 295 295 295 294 294 293 293 293 292 292 292 292 292 292 291 291 291 291 291 290 289 289 288 287 287 286 285 285 284 284 283 282 282 281 282 282 282 282 282 282 282 284 286 288 289 291 293 296 297 298 298
314 317 312 307 306 307 309 307 305 306 308 306 306 307 308 307 307 308 307 306 306 305 303 303 304 304 303 300 299 297 296 297 296 296 296 295 295 295 294 294 293 293 293 292 292 292 292 292 291 291 291 291 291 290 290 289 288 287 287 286 285 284 284 284 283 282 282 281 280 280 281 281 281 281 281 281 282 284 286 288 289 291 293 295 297 298
315 316 310 305 305 303 303 303 303 307 308 305 305 307 306 304 305 306 306 304 304 303 302 303 304 303 302 301 298 297 297 296 296 296 295 295 295 294 294 293 293 293 292 292 292 292 292 291 291 290 290 291 291 290 289 288 288 287 286 285 284 284 283 283 283 282 281 280 279 279 279 280 280 280 280 280 280 282 284 287 288 289 291 293 294 297
315 314 309 307 307 303 300 301 302 303 304 304 305 305 303 303 303 304 304 302 301 301 302 304 303 301 303 302 298 297 297 297 297 296 295 295 295 294 294 293 293 293 292 292 292 292 291 291 290 290 290 290 290 289 288 288 287 286 286 284 283 283 283 282 282 282 281 279 278 278 278 279 279 278 279 279 279 280 282 286 287 287 289 292 293 294
313 314 310 306 306 303 300 303 304 302 301 302 303 302 302 304 303 302 303 302 301 301 303 304 303 302 303 302 299 298 297 298 297 296 295 295 294 294 294 293 293 293 292 292 292 292 291 291 290 290 290 290 290 289 288 287 286 286 285 284 284 283 282 282 282 281 280 279 277 277 277 277 277 277 278 278 278 280 281 283 285 286 288 291 292 293
310 312 311 305 303 302 301 303 305 303 300 300 300 300 301 301 301 302 302 302 302 302 302 303 302 303 303 303 302 299 297 297 296 296 296 295 294 294 293 293 293 292 292 292 291 291 291 290 290 290 290 290 289 288 287 286 286 285 285 284 284 283 283 282 282 281 280 278 277 277 276 276 276 277 277 277 278 279 280 281 283 285 287 289 290 292
309 309 309 305 301 302 303 303 304 305 302 300 298 299 299 299 300 302 300 300 301 300 300 301 300 301 302 300 300 298 297 297 296 296 295 295 294 294 293 293 293 292 292 291 291 291 290 290 290 290 290 289 289 288 287 286 285 285 284 284 283 283 283 282 282 281 279 278 277 277 276 276 276 276 276 276 277 278 279 280 282 283 285 286 288 291
309 308 307 306 302 303 304 303 302 303 303 301 299 299 300 299 300 301 299 300 301 298 298 299 298 300 301 299 298 298 297 297 296 296 295 294 294 293 293 293 292 292 291 291 291 290 290 290 290 290 289 289 288 287 286 286 285 284 284 283 283 282 282 282 281 280 279 278 277 277 276 275 275 275 275 276 277 277 278 280 281 282 283 284 287 290
305 306 306 306 305 304 303 301 299 300 300 301 300 300 300 299 299 300 299 301 301 298 297 298 298 299 300 300 299 298 297 297 296 296 295 294 294 293 293 293 292 292 291 291 290 290 290 290 290 289 288 288 287 287 286 285 284 284 283 282 282 282 282 281 281 280 279 278 277 276 275 275 275 275 275 275 276 277 277 279 280 281 282 284 286 289
303 306 306 305 305 303 299 297 297 298 298 299 299 299 299 298 299 299 299 300 301 299 298 298 298 298 299 300 299 297 297 297 296 296 294 294 294 293 293 292 292 291 291 290 290 290 290 290 289 289 288 287 287 286 285 285 284 283 283 281 281 281 281 281 280 279 278 277 276 276 275 275 274 274 274 275 275 276 277 278 278 279 281 283 285 287
306 307 306 305 307 306 302 299 298 298 297 297 297 298 299 298 299 300 299 299 299 298 297 297 297 298 299 300 299 297 297 297 296 296 294 293 293 293 292 292 291 291 290 290 290 290 289 289 289 288 287 287 286 285 284 284 283 283 282 281 280 280 280 280 280 278 277 277 276 275 275 274 274 274 274 274 275 275 276 277 278 278 279 281 284 286
307 306 305 308 310 312 313 308 303 300 297 297 297 298 298 298 298 298 298 298 298 297 297 297 297 297 298 299 298 298 297 297 297 296 294 293 293 293 292 292 291 291 290 290 289 289 289 289 288 287 287 286 285 284 284 283 282 282 281 280 279 279 279 280 279 278 277 276 276 275 275 274 274 274 274 274 274 275 275 276 277 277 278 279 282 284
305 303 302 306 309 311 312 306 302 299 297 297 297 297 297 298 298 298 297 297 297 297 297 297 297 297 297 297 297 297 297 297 296 295 294 293 293 292 292 292 291 290 290 289 289 289 289 288 287 287 286 285 284 284 283 282 281 280 279 279 278 278 279 279 279 278 277 276 275 275 274 274 274 273 273 273 274 274 274 275 275 276 277 278 279 282
303 302 302 303 304 305 306 302 300 299 297 296 297 296 296 298 299 299 298 297 297 297 297 297 297 297 297 297 297 297 296 297 296 294 293 293 293 292 292 291 290 290 289 289 289 289 288 288 287 286 285 284 284 283 282 281 280 279 278 278 277 277 278 278 278 277 276 275 274 274 274 273 273 273 273 273 273 273 274 274 274 275 275 277 278 279
301 302 303 302 301 302 302 301 300 299 297 296 296 296 296 296 298 299 298 297 297 297 297 296 296 297 297 296 296 296 296 296 295 293 293 293 292 292 292 291 290 290 289 289 289 288 288 287 286 285 284 283 283 282 281 280 279 278 278 277 277 277 277 277 277 277 276 275 274 273 273 273 273 273 273 273 273 273 273 273 274 274 274 276 277 277
299 301 301 300 300 300 300 300 299 298 297 297 296 296 296 296 296 297 297 297 297 296 296 296 296 296 296 296 296 296 295 295 294 293 293 293 292 292 291 290 290 290 289 289 288 288 287 286 285 284 283 282 282 280 280 279 278 277 277 277 276 276 276 277 277 276 275 274 273 273 273 273 273 272 272 272 272 273 273 273 273 273 274 274 275 276
299 301 299 298 299 299 298 298 298 297 297 296 296 296 296 296 295 296 296 296 296 296 296 296 296 296 296 296 296 296 296 295 293 293 293 292 292 291 291 290 290 289 289 289 288 287 286 285 284 283 282 281 280 279 279 278 277 277 276 276 276 276 276 276 275 275 274 273 273 272 272 272 272 272 271 272 272 272 272 272 272 272 273 274 275 276
298 299 298 298 300 300 299 297 297 297 296 296 296 296 296 296 296 296 296 296 296 296 296 296 296 296 296 296 296 295 295 293 293 293 293 292 292 291 290 290 290 289 289 288 287 286 285 284 284 282 281 280 280 279 278 277 276 276 276 276 276 276 276 276 274 274 274 273 272 272 271 271 271 271 271 271 271 271 271 271 272 272 272 273 274 275
298 298 298 299 300 300 298 296 296 296 296 298 298 297 296 296 297 296 297 297 296 296 296 296 296 296 296 296 296 295 294 293 293 293 292 292 291 290 290 290 290 289 288 287 286 285 284 283 283 281 280 280 279 278 277 276 275 275 275 275 276 276 276 276 274 273 273 273 271 271 271 271 270 270 270 270 270 270 270 271 271 272 272 272 273 275
297 298 298 299 300 298 295 295 295 296 299 300 299 298 297 296 296 297 296 297 297 296 296 296 296 296 296 296 296 295 294 293 292 292 292 291 291 290 290 290 289 288 287 286 285 284 283 282 282 281 280 279 278 277 276 275 275 275 275 275 277 277 276 275 274 273 273 272 271 271 271 270 270 269 269 269 270 270 270 270 270 271 271 271 272 274
298 298 298 298 299 297 295 295 297 300 301 298 296 297 297 296 296 296 296 296 297 296 296 296 296 296 296 295 295 293 293 292 292 292 292 291 290 290 290 289 289 287 286 285 284 284 283 281 281 281 280 278 277 276 275 275 275 276 277 277 277 276 275 275 275 274 273 271 270 270 270 269 269 268 269 269 269 269 269 270 270 270 271 271 272 273
298 297 298 298 297 297 296 297 300 302 300 296 294 295 295 295 295 296 296 296 296 296 296 295 295 295 295 294 293 293 292 291 291 291 291 291 290 290 289 289 287 286 285 284 283 283 282 280 280 280 279 278 277 276 275 275 275 276 278 278 276 275 275 275 274 273 272 272 271 270 269 269 268 268 268 269 269 269 270 270 270 270 271 272 272 273
297 297 297 297 297 297 297 297 299 299 298 298 297 295 294 294 295 296 296 296 295 295 295 295 295 295 294 293 292 292 291 291 291 291 291 290 290 289 289 288 287 285 285 284 283 282 281 280 279 279 278 278 277 276 275 275 275 276 277 277 275 274 273 273 272 271 271 271 271 270 269 269 268 268 268 268 269 270 271 272 272 271 272 272 273 274
297 297 297 298 298 297 296 297 298 298 299 299 297 296 295 294 294 295 295 295 295 294 294 294 294 294 294 293 292 291 292 292 292 291 290 289 289 289 289 287 286 285 284 284 282 281 281 280 280 279 278 277 277 276 275 275 275 276 276 276 274 273 274 274 273 271 270 271 271 272 271 270 268 268 269 270 270 271 271 272 273 273 273 273 273 275
297 297 297 298 298 296 296 297 298 298 299 297 295 295 295 293 293 294 294 294 295 294 293 293 294 293 293 292 291 292 293 293 292 291 290 290 290 289 288 286 285 285 284 283 281 280 280 280 280 279 278 277 276 276 275 275 275 275 276 276 275 276 276 276 274 272 272 274 274 273 272 270 269 269 270 271 272 273 273 273 273 274 274 274 275 275
296 296 296 296 297 297 297 297 297 298 298 294 292 293 293 293 293 295 297 297 295 293 293 293 293 292 292 292 291 292 293 292 291 291 290 290 290 288 287 285 284 284 283 282 281 280 280 279 278 278 277 276 276 276 276 276 276 276 276 276 276 276 275 273 273 274 275 275 274 273 273 271 270 270 271 272 273 274 275 275 275 275 275 276 277 277
295 296 296 295 296 296 297 297 297 297 296 294 292 292 292 293 294 295 297 297 294 292 293 293 292 292 292 291 291 292 292 291 291 290 290 289 288 287 286 285 284 284 283 282 282 281 281 280 278 277 277 276 275 275 276 276 276 276 276 276 276 276 274 273 274 275 276 275 275 276 275 273 272 272 273 274 275 275 276 277 277 278 278 278 279 279
294 295 295 295 295 295 296 297 296 297 296 294 292 292 292 294 295 295 295 294 293 293 293 293 292 292 292 291 291 291 291 290 290 290 289 288 287 286 286 285 284 284 283 282 282 281 280 280 278 277 277 276 275 275 275 276 276 276 276 276 277 276 276 275 275 275 276 276 277 277 276 274 272 273 274 276 276 276 278 280 280 280 281 281 281 282
295 294 294 295 295 294 295 295 295 297 297 294 292 292 293 295 296 295 293 293 293 293 292 292 292 292 291 291 291 291 291 290 289 289 288 287 286 286 285 285 284 284 283 282 281 280 279 279 278 278 277 276 275 275 275 275 276 276 276 277 277 276 277 277 276 275 276 276 276 277 276 274 273 274 275 276 275 276 279 281 282 282 283 283 284 284
296 295 295 295 294 294 295 295 295 296 295 293 293 293 293 294 294 294 293 293 293 292 292 292 292 292 291 291 291 291 290 289 289 288 288 287 286 286 285 285 284 284 283 282 281 279 279 278 278 278 276 275 275 275 275 275 275 276 276 277 277 277 278 278 277 276 276 276 276 276 276 274 273 273 273 273 274 275 278 281 282 283 284 285 285 285
298 297 297 296 295 295 296 296 295 295 294 293 293 294 293 294 294 294 293 293 293 292 292 292 292 292 291 291 290 290 289 289 288 288 288 287 286 286 285 285 284 283 282 281 280 279 278 278 278 277 277 276 275 274 275 274 274 275 276 276 277 278 277 277 277 276 276 277 276 276 276 275 272 271 271 272 274 276 278 280 282 283 283 285 286 287
297 296 296 296 295 296 296 295 294 294 294 293 293 294 294 294 294 293 293 293 293 293 292 292 292 291 291 290 290 289 289 288 288 288 287 287 286 285 285 284 283 282 282 281 280 279 278 278 277 276 276 276 275 274 274 274 273 274 275 276 277 277 277 277 277 276 277 277 277 277 276 273 271 270 272 274 276 277 278 279 280 282 283 284 286 287
296 295 295 296 296 297 297 296 294 294 294 293 293 293 293 293 293 293 293 293 293 293 292 292 291 291 291 290 290 289 289 289 288 288 287 286 286 285 284 284 283 282 280 280 279 278 277 277 276 275 275 275 275 274 274 274 273 274 275 276 276 277 277 277 276 276 277 277 278 277 274 270 269 270 273 275 276 277 279 279 280 281 282 284 285 286
296 295 295 296 296 297 297 296 295 294 294 293 293 293 293 293 293 293 293 293 292 292 292 291 291 291 291 290 290 289 289 289 288 288 287 286 285 285 284 283 282 281 279 279 278 278 277 276 275 274 274 274 274 274 274 273 274 274 275 276 276 277 278 277 276 277 277 277 277 276 271 268 269 270 271 273 274 276 278 279 280 281 281 282 283 283
296 295 295 295 296 296 296 295 294 294 294 294 293 294 294 293 293 293 292 292 292 291 291 291 291 291 290 290 289 289 289 288 288 287 286 286 285 284 283 282 280 279 279 278 278 277 276 275 274 274 274 274 274 274 274 273 273 274 275 275 276 276 277 277 277 277 277 276 277 276 270 268 269 269 269 270 273 276 279 278 277 278 280 281 282 281
295 295 295 295 296 296 296 296 295 295 295 294 294 294 294 294 293 293 292 291 291 291 291 290 290 290 290 290 289 289 289 288 288 287 286 285 284 283 282 281 279 278 278 278 278 277 275 274 273 273 273 273 273 273 273 273 273 274 274 275 275 276 276 276 276 277 276 276 277 274 269 267 269 269 268 269 271 276 281 282 279 277 278 280 282 282
296 296 295 295 296 297 296 296 296 295 295 295 294 294 294 294 293 293 292 292 292 291 291 290 290 290 290 290 289 289 288 288 287 287 286 285 284 283 281 280 279 278 277 277 277 277 275 274 273 273 273 273 273 273 273 273 273 273 274 275 275 275 276 275 275 275 276 276 276 272 268 267 269 268 268 269 271 274 278 282 284 282 279 280 282 283
Wind_Speed
2 3 4 2 2 3 4 3 2 4 4 4 4 4 5 6 6 8 4 3 3 1 4 5 6 9 7 6 11 15 16 16 15 15 14 12 10 8 7 5 3 4 7 10 8 13 22 24 26 29 30 31 31 30 31 33 31 31 34 35 36 37 38 38 39 41 43 43 43 43 42 43 44 44 44 44 41 39 38 39 39 39 38 37 38 36
1 3 2 3 4 2 2 1 2 3 4 4 5 5 6 6 6 6 3 4 4 1 3 6 8 11 9 5 12 15 13 12 14 14 13 13 11 8 6 5 4 5 7 9 8 14 23 26 28 30 31 32 32 32 32 32 31 32 33 35 37 39 39 39 40 43 44 45 45 45 46 46 47 47 45 44 43 41 40 40 40 40 38 37 37 35
3 3 1 3 2 1 1 3 3 4 4 5 5 5 5 4 3 5 2 3 2 1 3 7 8 10 8 5 11 13 10 11 15 15 13 12 10 7 6 5 5 6 8 11 11 16 25 29 30 31 32 32 32 33 33 33 34 35 35 37 40 41 40 41 43 45 45 46 47 48 49 48 49 48 46 44 43 43 42 40 40 42 41 38 36 34
5 3 2 2 1 1 2 3 4 5 5 5 5 5 6 2 1 3 1 2 4 5 6 9 8 7 4 5 9 9 12 13 14 14 12 11 9 7 6 4 5 7 10 13 13 18 25 28 29 31 32 32 32 34 35 35 36 36 38 40 41 41 43 45 46 45 46 47 49 50 50 48 48 47 44 43 42 42 42 41 42 44 44 41 38 34
8 4 2 1 1 0 3 3 4 3 3 4 4 4 4 2 2 3 4 5 8 7 6 6 7 6 5 9 7 8 12 12 13 14 12 10 9 7 5 4 6 8 11 13 13 18 25 27 29 32 33 33 33 34 35 35 36 38 40 41 41 43 47 48 48 47 47 48 50 51 50 47 45 43 43 42 42 42 42 43 43 44 45 44 41 37
7 1 3 1 1 0 2 4 3 1 2 4 1 1 1 2 3 4 6 6 6 5 2 2 4 5 6 10 7 7 8 9 12 14 12 11 9 6 5 5 7 8 11 13 14 19 25 27 31 34 34 34 34 34 35 36 36 37 40 40 41 46 50 51 51 49 47 49 51 51 49 49 47 46 46 43 41 42 43 43 44 44 45 46 44 40
3 2 3 1 1 2 3 4 2 3 0 3 2 2 3 2 4 5 5 4 2 5 3 1 2 5 2 7 8 9 8 9 11 10 11 12 9 6 5 6 7 9 12 13 16 20 25 29 33 35 36 36 36 36 35 34 35 40 43 42 42 47 52 54 52 50 48 48 50 49 49 49 48 48 48 45 42 43 44 43 44 45 45 45 43 40
2 2 2 2 1 1 3 3 2 2 1 2 3 1 1 3 5 5 5 4 4 6 7 4 5 6 6 6 10 13 10 8 9 7 9 12 9 7 6 5 7 10 12 14 18 23 27 30 32 34 35 36 37 38 35 36 42 47 46 43 45 51 56 56 53 51 47 47 51 53 51 50 48 47 47 47 45 44 44 44 44 44 44 44 42 38
2 2 2 2 2 3 2 2 2 1 1 2 1 1 2 5 7 7 6 5 5 6 6 6 5 5 7 3 7 12 11 9 10 8 8 10 9 6 4 4 8 10 12 17 22 26 29 30 32 35 36 36 36 36 36 40 46 47 45 45 50 56 58 57 53 49 49 54 58 53 47 47 47 46 47 47 46 44 43 44 44 43 44 44 41 38
1 2 2 3 2 3 2 3 2 1 1 1 3 4 5 6 7 6 6 5 5 6 8 7 6 5 6 2 7 8 8 9 9 7 8 10 9 6 4 5 9 12 16 21 25 28 29 29 32 35 35 36 36 35 37 41 43 44 46 50 54 58 58 55 52 51 56 59 55 46 43 46 46 46 46 45 45 45 43 43 44 43 44 44 40 39
1 3 1 2 3 2 3 2 2 3 1 4 4 5 5 6 6 5 6 4 3 5 7 6 7 8 5 2 8 6 5 9 9 7 8 10 9 5 4 7 11 15 21 24 26 28 29 29 32 34 35 36 36 36 39 42 42 44 49 52 55 57 56 55 55 58 59 55 49 48 51 51 50 47 46 44 42 41 41 41 43 43 42 42 41 40
1 2 2 1 2 3 4 1 3 4 1 2 2 4 5 4 4 3 2 2 3 5 2 4 1 4 6 3 5 3 3 8 9 7 7 7 7 5 4 9 13 18 22 24 27 29 29 31 32 34 36 36 36 39 42 41 42 48 53 52 53 56 56 57 58 59 56 51 50 52 53 50 47 46 46 47 46 42 40 38 39 42 42 41 41 40
2 4 2 3 1 4 3 1 1 1 1 2 2 2 3 4 3 2 1 1 4 5 2 6 7 2 7 5 3 6 5 7 8 9 9 8 6 5 7 10 13 18 21 24 26 27 29 31 32 35 37 38 39 41 41 41 45 52 54 52 53 57 58 58 59 58 55 52 50 49 49 47 43 42 44 46 46 45 43 39 38 40 42 41 39 39
2 2 2 3 0 4 5 2 1 1 2 4 2 2 2 1 3 4 2 2 4 4 4 4 5 3 5 5 4 8 8 10 14 14 11 8 6 6 6 8 12 17 20 23 24 26 30 31 32 35 38 39 40 39 40 44 50 54 53 53 55 57 58 59 60 59 55 52 49 47 47 46 44 45 46 45 44 43 42 40 39 39 39 41 39 39
3 3 2 3 2 6 5 2 3 2 1 4 2 2 3 2 3 5 1 2 4 5 5 0 3 3 3 2 3 10 12 15 17 14 10 8 6 4 5 7 12 16 19 22 24 27 30 30 32 36 39 39 38 38 42 48 52 52 51 54 56 57 58 59 61 59 56 53 51 47 45 45 45 46 46 46 44 40 38 38 39 38 37 37 40 41
4 5 1 1 2 6 3 1 4 3 0 2 2 3 1 2 3 4 1 2 1 6 6 2 2 4 3 1 5 11 11 13 15 13 9 6 4 5 6 9 13 16 18 22 26 28 29 30 34 37 38 37 36 39 46 50 51 49 51 54 56 57 58 58 59 58 56 54 52 46 43 43 44 45 45 46 44 40 37 37 40 40 36 35 36 39
3 4 0 1 1 2 1 1 1 1 0 0 2 1 3 1 2 1 3 1 2 5 6 2 3 4 2 2 4 8 7 8 10 10 8 5 4 5 6 9 12 15 20 24 27 27 28 32 36 37 37 35 35 41 48 51 50 49 51 54 54 54 56 58 58 57 55 53 51 47 42 42 43 43 45 45 44 41 38 39 41 42 40 35 32 34
1 3 3 1 1 1 1 2 2 2 2 2 2 3 1 1 2 2 2 2 1 6 6 3 6 6 2 2 3 7 7 7 7 6 6 4 4 5 6 9 13 17 22 25 26 27 30 35 38 38 37 35 36 43 48 48 49 49 51 52 52 52 54 57 58 57 55 52 50 47 43 43 43 43 43 42 42 41 37 38 39 39 41 38 32 32
2 2 3 0 1 1 2 2 2 2 2 3 1 1 2 0 1 2 1 1 2 7 6 4 7 6 5 4 5 8 8 6 5 5 3 2 4 6 8 11 14 19 23 25 26 28 32 36 38 37 36 36 38 44 46 46 47 48 51 53 53 53 54 55 56 57 56 52 49 47 43 44 45 43 42 41 41 41 36 34 36 36 39 40 35 32
2 1 3 1 2 1 1 1 2 2 1 3 2 2 1 2 3 2 2 2 3 6 7 8 9 3 4 5 7 8 6 6 4 3 2 2 4 6 8 11 15 19 23 26 27 31 34 36 37 36 35 37 41 45 45 45 46 49 52 54 54 55 57 58 57 56 55 52 50 49 46 44 44 43 42 41 40 40 36 35 35 35 37 40 39 33
2 2 3 2 2 0 1 3 5 5 4 3 2 3 3 2 1 1 1 2 3 5 5 8 10 4 1 0 5 7 5 6 5 3 2 0 3 5 8 11 15 19 23 26 28 32 36 37 37 36 36 40 44 46 46 45 49 50 50 52 54 56 58 58 58 57 55 51 50 50 48 45 44 44 43 41 40 40 38 35 35 35 36 39 40 36
1 3 4 2 2 4 4 2 2 3 4 5 5 6 6 5 3 2 5 2 2 5 4 6 12 7 2 1 4 6 4 6 5 3 3 1 3 5 8 11 15 20 24 27 30 34 37 37 36 36 39 44 47 48 48 49 51 50 49 53 55 54 54 55 58 58 56 52 49 49 48 46 45 45 43 41 40 41 39 35 33 34 35 38 40 39
1 1 2 5 5 4 3 0 0 1 2 3 4 4 5 6 6 5 7 3 1 4 3 4 11 8 3 4 4 5 5 7 4 4 3 2 4 6 9 12 17 22 25 29 32 34 36 36 35 37 42 46 47 47 49 51 52 50 51 57 57 54 54 56 58 58 56 54 51 48 47 46 46 45 43 43 41 40 39 37 35 34 33 36 40 40
2 1 2 5 5 2 1 1 1 0 0 2 4 4 4 5 5 5 5 1 1 6 4 3 9 7 1 2 4 5 6 7 7 6 3 4 3 5 9 14 19 24 28 32 34 35 36 35 35 39 43 45 45 47 49 50 50 52 56 60 57 55 57 57 57 58 55 53 52 49 47 46 45 45 44 43 42 39 38 38 38 36 33 32 35 39
4 1 2 2 6 5 2 1 1 1 2 3 4 4 5 5 3 1 1 2 3 12 10 6 11 9 2 2 4 6 6 6 9 5 4 5 4 7 11 16 21 26 31 33 35 36 36 35 37 41 44 45 45 46 47 48 50 55 59 59 55 54 57 57 57 57 55 53 52 50 48 46 43 43 44 43 41 39 38 37 38 38 36 33 33 36
5 1 3 3 7 9 7 4 3 2 3 3 4 7 8 8 7 4 2 3 8 12 11 10 13 11 6 4 3 4 5 5 9 7 5 6 6 10 14 19 24 28 32 34 36 37 36 38 41 44 45 45 45 45 46 48 51 55 57 58 56 55 57 58 58 57 55 54 53 50 47 44 40 39 41 41 41 39 38 37 37 37 38 37 35 34
2 1 6 10 11 12 9 5 1 2 4 4 5 9 10 10 12 9 5 9 9 6 9 14 13 13 15 11 8 9 8 7 9 6 5 6 8 10 14 19 24 28 31 34 35 35 37 41 44 45 45 45 45 45 46 49 51 53 55 56 57 55 54 57 58 58 57 55 51 46 43 42 41 39 38 38 39 39 38 38 38 38 38 38 37 36
2 4 10 14 17 17 11 5 2 4 6 7 6 8 11 11 13 12 13 14 6 2 13 16 10 13 18 13 10 10 8 8 6 2 4 5 8 10 14 19 24 28 31 33 33 34 37 42 45 46 46 45 45 47 49 51 53 53 54 55 56 54 53 56 58 59 60 55 47 42 40 40 39 38 38 38 38 39 39 39 39 39 38 37 38 38
2 6 9 11 16 18 13 9 7 5 7 9 8 9 11 13 14 16 19 18 10 9 17 16 11 16 17 11 11 9 6 9 6 2 3 6 8 10 15 21 24 27 29 31 32 34 38 42 44 45 46 45 46 48 50 53 54 54 55 56 56 55 53 54 56 60 61 55 45 42 42 41 39 38 39 40 39 38 38 38 38 38 38 37 38 39
3 5 6 8 13 14 11 10 10 9 10 12 12 12 13 16 17 18 20 18 16 19 22 19 20 23 18 13 13 12 12 12 5 0 3 6 7 11 16 21 23 25 27 29 33 36 38 42 44 44 45 45 47 49 50 52 55 55 56 57 57 56 54 55 58 60 60 54 48 45 45 43 41 40 40 39 39 38 37 38 39 40 40 40 39 40
5 3 2 4 9 11 9 9 10 10 12 14 15 14 15 17 19 20 19 17 16 20 23 22 21 22 18 12 11 15 16 10 4 1 5 5 6 11 17 20 22 24 27 30 34 37 38 41 44 44 45 46 47 49 50 52 54 56 57 57 57 57 56 57 60 60 57 54 51 49 47 44 42 42 42 41 41 42 42 41 42 42 42 40 39 38
5 3 2 3 5 6 5 7 8 7 9 17 22 20 18 18 19 19 17 15 15 18 21 19 16 16 13 6 6 11 11 6 4 2 4 4 7 13 17 19 21 23 28 32 35 36 38 41 44 45 45 46 48 49 50 52 54 55 56 56 57 58 57 57 58 58 58 57 52 49 47 45 45 46 46 46 45 45 45 43 43 43 42 41 39 38
6 4 2 4 4 2 3 5 2 3 6 14 16 16 19 21 21 19 16 17 19 18 15 14 14 13 8 3 4 7 6 4 3 1 2 5 10 15 17 16 18 23 29 33 34 35 38 40 43 44 45 45 47 49 49 50 52 53 53 54 56 57 57 58 58 59 61 58 51 48 49 49 49 49 48 48 47 45 44 43 43 43 42 43 41 38
8 7 3 4 3 1 4 5 4 2 9 11 4 8 17 21 22 21 20 21 19 16 13 13 13 11 7 5 7 6 4 4 3 1 4 8 14 18 16 13 17 24 30 32 33 35 37 39 42 44 44 45 46 47 48 49 49 51 52 53 55 57 57 58 58 58 59 56 50 49 51 51 50 49 47 48 48 46 45 44 44 44 43 43 41 37
9 8 4 3 2 2 3 4 1 7 9 4 2 3 9 13 16 18 20 19 15 13 14 16 15 12 10 10 8 4 5 6 2 4 9 13 16 15 11 13 20 26 29 30 32 35 37 39 42 44 44 46 46 47 48 49 50 52 53 53 55 56 57 58 59 60 59 55 52 52 52 51 51 50 49 48 47 46 47 46 45 45 42 41 40 37
9 7 4 3 2 2 2 4 6 7 9 6 4 3 2 4 7 9 14 15 12 12 13 15 16 12 11 11 6 8 8 5 2 9 14 13 10 8 9 16 24 27 27 29 31 34 36 38 40 42 44 45 46 46 47 48 50 52 54 54 54 55 57 59 60 61 58 54 52 52 52 51 51 52 51 51 49 47 47 47 45 45 42 40 39 38
8 7 4 3 3 3 3 7 7 9 17 15 7 6 7 7 7 6 10 11 10 12 14 14 13 11 10 8 8 11 7 5 5 10 10 4 7 7 12 21 26 26 27 29 31 33 35 36 38 39 42 44 44 44 45 47 49 51 53 53 53 55 58 59 59 59 60 59 56 54 52 51 51 53 52 51 51 50 48 46 44 43 42 40 39 37
8 7 6 5 4 3 3 5 5 7 12 8 0 6 11 11 7 5 6 8 7 13 17 14 11 9 6 7 11 10 6 4 3 3 3 5 5 11 19 23 24 26 28 30 31 33 34 36 38 39 40 42 42 42 44 46 49 51 52 53 53 55 57 58 58 58 59 59 57 55 53 52 53 54 52 49 48 48 47 46 44 41 39 38 37 36
7 6 4 4 4 4 4 6 6 9 10 1 5 3 9 13 11 8 3 7 6 14 19 14 9 8 7 9 10 9 6 1 3 5 7 5 12 17 21 23 23 25 27 28 30 32 34 36 38 39 40 40 41 42 44 46 49 50 51 52 55 58 60 60 60 60 60 59 58 57 55 52 51 51 49 47 44 43 42 42 41 39 37 34 33 33
7 5 4 6 7 7 7 7 6 8 6 4 5 4 12 18 14 7 2 8 4 10 18 16 10 9 12 13 10 7 4 6 5 5 6 10 16 18 20 22 23 25 27 28 29 31 33 35 37 38 39 39 40 41 43 46 49 50 51 53 56 58 59 60 61 61 61 59 58 56 52 49 47 46 44 42 41 40 40 39 36 34 32 30 28 27
4 4 6 8 8 9 10 7 6 8 5 7 8 11 18 17 8 2 4 5 2 8 16 18 15 14 16 15 12 8 11 13 9 6 9 13 16 17 19 20 22 25 26 28 29 31 33 36 36 37 37 36 38 40 43 46 49 51 51 53 55 57 57 59 60 60 59 59 57 54 49 45 44 42 40 37 36 36 36 36 34 30 25 24 22 22
4 3 5 7 6 7 8 6 6 9 6 13 15 18 20 11 2 5 5 8 12 14 15 18 19 17 16 16 16 16 16 14 10 11 12 13 14 15 18 20 22 24 26 27 29 31 33 36 38 38 37 37 38 40 43 45 48 50 51 53 55 57 58 59 59 59 59 59 57 53 48 44 41 39 38 36 35 34 31 30 31 30 24 22 22 22
8 6 5 7 5 4 5 5 5 9 9 23 21 12 10 7 4 5 8 10 15 18 18 20 20 18 17 18 19 19 16 12 11 12 12 12 14 15 17 19 21 23 26 28 29 30 33 36 38 39 38 38 39 41 43 45 47 49 51 53 55 57 58 59 59 58 58 58 56 52 47 44 40 38 37 37 37 35 31 25 26 28 27 24 24 24
8 8 5 6 7 7 7 10 7 4 9 28 23 9 13 20 13 7 8 10 14 20 22 22 20 18 18 18 18 18 17 13 12 11 11 11 13 15 17 19 20 22 25 27 28 30 32 35 38 39 38 37 38 40 41 43 46 48 50 52 54 56 58 59 59 57 56 55 54 50 46 43 42 41 40 39 38 35 30 24 21 23 25 25 25 24
11 10 4 4 9 8 6 7 5 4 15 31 27 16 21 30 24 14 11 12 16 21 23 21 21 20 18 16 16 18 16 13 10 10 10 12 13 14 16 18 19 22 24 26 28 30 32 34 37 39 39 38 37 39 40 41 44 47 49 51 53 55 57 58 57 56 55 53 52 49 46 45 45 43 41 39 36 33 30 25 21 21 23 26 26 26
8 7 3 2 6 7 7 4 6 7 15 29 29 19 18 25 26 21 17 15 18 22 22 20 20 18 16 15 16 15 13 10 9 9 11 11 12 14 16 17 19 21 23 25 27 29 31 33 35 37 38 38 38 38 39 40 42 45 47 50 52 54 54 55 55 55 54 53 52 49 47 48 48 45 42 38 33 31 29 27 23 20 20 22 24 26
5 9 6 3 6 6 6 5 9 11 16 24 27 21 15 16 19 20 20 19 19 20 21 19 15 13 13 14 13 12 11 10 9 10 10 11 12 13 15 17 18 20 22 24 27 29 31 33 34 36 38 39 39 39 39 39 41 43 45 48 50 52 52 53 53 54 53 52 52 49 48 49 48 46 43 40 36 32 29 26 24 22 20 20 21 23
8 13 10 8 9 7 3 1 8 14 19 21 24 24 21 19 18 18 19 20 19 19 19 16 13 12 12 12 12 11 10 10 10 10 10 11 12 13 14 16 17 19 20 23 26 28 30 32 33 35 36 37 38 39 39 39 40 42 44 47 48 50 51 51 51 51 51 51 50 49 48 48 47 46 45 44 40 35 30 26 24 23 23 22 23 26
13 14 10 8 9 8 6 3 6 5 8 15 23 27 27 26 25 22 20 20 20 19 18 15 13 13 12 12 12 11 11 10 10 10 10 11 11 13 14 15 17 18 20 22 25 27 28 30 32 33 34 36 37 37 38 38 40 41 44 46 47 48 49 50 49 49 49 49 49 48 47 46 45 45 46 45 42 36 30 26 25 25 23 19 19 25
14 11 8 7 8 10 10 10 10 4 3 11 21 26 26 25 25 24 22 21 21 21 19 17 15 14 14 14 13 12 11 10 10 10 11 11 11 12 14 15 16 17 19 21 24 26 27 28 30 31 32 34 35 36 37 38 39 40 42 44 45 46 46 47 48 48 47 48 47 46 46 46 45 45 45 45 42 38 30 22 19 22 22 18 16 19
14 13 12 10 9 9 9 13 18 13 7 9 17 22 24 24 24 23 22 22 22 22 21 19 18 16 15 15 14 12 12 11 10 11 11 12 12 12 14 15 16 17 19 20 23 25 27 27 29 30 31 33 34 35 36 36 37 39 41 42 43 44 44 44 46 46 46 46 46 45 45 44 44 45 44 42 41 40 37 28 18 16 20 21 20 18
Wind_Direction
323 335 288 262 21 52 37 4 316 316 311 296 288 272 262 265 263 268 273 145 134 321 268 275 280 271 258 186 163 158 148 140 142 142 139 132 124 116 99 92 64 33 7 4 357 350 352 349 349 351 348 344 340 337 335 335 334 331 332 331 329 327 326 325 323 321 319 317 315 313 311 309 308 306 304 305 305 303 300 300 303 304 304 302 301 298
305 305 300 52 43 23 10 324 276 276 268 265 259 259 256 254 259 273 279 135 122 101 261 278 271 265 264 197 158 156 151 151 154 146 140 136 129 120 112 109 68 31 7 359 341 339 348 350 351 350 349 345 337 334 334 333 331 328 329 330 329 327 326 325 324 322 319 316 313 310 307 305 304 303 301 300 301 300 298 300 302 302 304 304 302 300
328 282 113 62 44 318 268 208 226 234 244 257 248 253 254 251 283 296 296 125 103 7 259 271 262 263 269 181 156 162 156 149 149 142 137 133 128 128 121 104 54 20 359 350 333 333 344 349 351 350 349 344 336 331 331 331 329 326 326 326 327 327 325 323 323 321 319 316 313 309 304 301 298 298 297 295 295 297 296 298 300 298 301 305 303 301
298 271 99 58 55 341 282 223 230 236 237 240 237 252 255 268 7 278 289 33 329 303 268 276 268 266 270 152 150 154 139 131 135 134 131 131 133 134 123 97 48 16 354 342 327 329 341 346 349 351 347 341 334 330 330 329 329 327 325 326 325 324 321 320 320 318 316 315 314 311 306 301 295 293 294 292 291 293 293 293 296 296 297 303 305 302
272 282 38 19 179 301 302 276 261 255 263 256 256 270 263 310 346 271 308 327 312 289 264 289 286 257 188 160 161 136 130 133 141 142 139 142 141 131 119 87 41 14 350 336 324 329 339 343 347 350 347 339 332 329 328 327 327 326 325 325 324 322 320 319 318 317 316 316 314 312 309 304 298 294 293 291 289 290 291 291 294 295 295 299 305 305
268 286 45 343 225 293 279 277 264 179 271 278 284 25 19 352 327 301 311 318 312 279 222 51 315 272 162 163 172 138 146 158 159 161 153 148 146 136 116 67 30 358 341 332 327 332 338 342 345 346 343 337 331 326 324 324 326 327 326 324 322 322 322 320 318 316 315 316 315 311 308 304 299 296 294 291 289 289 290 291 291 293 296 296 301 306
249 119 81 148 267 326 268 273 264 138 170 271 227 70 43 329 286 282 288 293 282 260 254 69 301 280 189 178 177 162 174 173 170 172 154 154 154 129 102 62 19 345 338 333 332 337 341 345 344 339 337 335 330 325 323 324 326 327 324 321 320 322 322 321 318 314 312 315 315 312 307 302 298 295 293 290 290 289 288 290 289 290 293 294 296 303
181 119 98 191 221 264 259 271 258 121 102 234 211 129 56 279 264 259 261 253 249 271 276 237 226 263 264 221 179 167 173 176 179 173 153 163 156 117 98 59 8 342 338 336 339 343 347 348 341 334 331 331 329 326 323 322 323 324 323 321 320 321 321 320 318 313 311 314 315 310 305 300 297 294 293 292 290 289 288 287 287 287 289 291 291 297
151 147 178 181 194 230 228 207 193 103 124 203 210 200 223 246 249 247 248 247 252 275 272 223 195 252 264 216 156 162 173 185 182 171 164 158 137 112 103 41 356 341 341 344 347 349 349 345 337 331 328 326 327 325 321 320 321 323 323 320 320 320 320 321 319 314 309 311 313 309 304 302 298 295 294 293 289 287 287 286 285 285 284 287 286 288
140 136 151 133 174 223 172 143 149 131 187 295 320 278 249 239 238 236 233 244 255 258 264 243 186 221 271 168 147 168 184 191 182 167 159 142 124 114 91 21 347 347 351 351 351 349 346 338 332 329 326 325 326 324 323 323 323 323 322 320 320 320 320 319 317 312 309 312 314 309 303 302 300 299 298 295 291 287 285 285 285 284 281 281 282 282
149 116 137 173 205 174 121 141 163 172 248 350 334 288 278 253 240 226 213 225 262 253 263 260 197 207 262 176 162 190 187 174 172 158 145 136 126 118 70 6 353 357 354 352 351 347 339 331 329 328 326 327 326 325 325 325 325 325 323 321 319 319 320 318 315 314 315 315 313 307 304 302 298 297 298 296 295 293 288 285 283 284 281 277 278 282
162 179 218 196 188 117 94 173 190 187 212 25 320 294 315 294 256 239 207 170 231 250 274 11 20 219 247 229 166 181 131 140 156 149 139 136 126 108 38 3 0 357 354 353 349 341 334 329 328 328 327 327 325 325 325 325 324 324 325 322 319 319 320 319 318 318 319 316 312 310 309 307 302 297 297 295 293 294 295 294 289 285 280 275 276 280
241 223 172 85 99 153 125 45 228 229 188 173 244 286 312 327 314 284 307 162 229 246 174 76 35 289 243 257 188 169 144 124 129 126 126 129 116 78 24 6 358 355 354 351 344 337 332 329 327 327 328 327 325 326 326 324 323 323 324 323 321 320 320 321 321 320 319 316 313 311 309 309 307 301 299 298 294 292 292 295 296 292 281 274 276 277
285 308 118 104 43 181 170 156 203 241 170 191 210 194 200 334 315 279 269 243 250 242 184 105 23 289 245 265 206 164 142 121 119 120 120 114 94 55 23 3 354 356 354 346 340 336 331 327 325 327 328 328 326 326 326 325 324 323 323 323 322 321 321 323 323 320 319 316 313 311 308 306 304 301 299 298 296 294 292 292 294 297 288 275 274 277
272 303 192 175 177 170 183 170 152 135 155 210 181 130 169 155 231 258 258 244 274 279 245 213 353 248 218 282 154 130 123 123 126 129 121 106 90 55 21 4 357 356 350 341 337 334 329 326 325 325 325 326 325 324 325 325 325 324 323 324 323 321 320 322 323 322 320 317 313 310 308 305 302 301 301 298 295 291 291 293 288 290 296 285 276 276
232 252 223 49 138 153 174 121 121 102 352 245 89 85 199 188 219 261 271 200 271 301 273 212 224 217 153 75 109 118 124 132 140 143 129 104 74 42 16 6 360 353 346 340 335 331 328 325 325 325 324 325 324 323 324 325 325 324 323 324 324 322 321 322 323 322 320 317 315 312 307 304 301 299 302 302 298 289 282 287 286 284 294 300 289 279
244 259 249 32 31 115 86 64 126 128 112 115 82 151 231 200 147 261 299 1 64 298 274 194 249 264 128 134 138 133 142 151 154 147 125 94 46 32 15 4 357 351 344 339 335 329 326 325 326 326 325 323 323 323 325 325 324 323 322 323 324 323 322 323 322 321 319 316 315 313 307 304 302 300 301 303 303 299 284 278 283 284 286 296 302 291
217 268 235 176 300 129 84 4 313 263 142 127 170 199 209 27 83 133 290 359 37 271 264 180 234 245 178 211 180 156 171 172 157 130 114 94 47 23 7 1 352 346 340 336 335 329 325 325 323 323 323 321 321 323 325 324 323 320 320 323 324 322 321 322 321 320 318 316 314 314 309 305 304 302 303 304 303 305 295 281 284 290 284 284 300 306
62 276 255 203 334 149 94 1 302 245 151 123 197 228 97 139 236 139 157 242 241 266 273 247 246 231 195 202 178 181 192 171 128 98 95 52 30 16 2 354 344 340 337 335 333 326 323 323 321 322 322 319 320 324 324 323 322 319 320 324 325 323 321 321 321 320 319 317 315 314 309 305 304 304 304 304 304 306 301 290 288 289 283 279 290 305
63 252 258 317 332 67 96 203 205 202 111 77 16 319 102 173 210 169 155 185 228 266 281 286 282 251 191 190 166 174 174 136 112 91 94 19 14 11 356 346 339 337 336 334 329 324 323 322 322 322 320 318 320 323 323 322 322 323 324 327 327 324 323 322 323 322 319 317 316 314 311 306 305 306 305 304 304 306 302 296 291 284 280 280 283 292
83 215 243 316 337 258 186 201 197 195 176 148 181 215 205 183 160 220 227 155 202 253 269 285 285 265 164 164 129 133 131 128 130 130 148 84 19 9 349 340 338 336 334 332 327 323 323 322 322 323 319 319 321 323 324 323 324 326 328 328 327 323 322 323 323 322 319 316 315 315 313 309 306 306 307 306 302 303 302 298 294 286 283 282 279 280
150 213 232 249 241 229 227 215 202 190 176 186 200 199 203 193 155 230 252 184 175 239 228 258 274 267 203 208 125 117 133 138 126 146 191 124 30 360 344 340 337 335 333 329 325 323 323 323 323 323 321 321 323 324 324 323 326 328 326 326 326 324 322 322 322 322 320 317 314 313 312 310 308 306 307 308 303 300 301 300 297 292 287 282 275 273
106 105 245 256 252 243 246 239 95 201 190 223 234 209 194 189 174 208 241 222 164 238 205 239 271 272 169 167 146 128 150 150 162 214 196 88 28 345 337 338 335 333 331 328 325 323 323 323 322 322 323 323 324 324 323 324 327 325 321 323 327 326 323 322 322 322 320 316 313 312 311 308 309 307 305 306 304 300 300 299 299 296 290 282 274 270
99 86 236 270 284 274 243 18 14 290 149 267 249 215 194 204 186 196 230 205 165 236 211 211 256 261 160 147 146 153 167 170 204 222 135 88 13 343 339 338 337 335 332 328 325 324 323 321 320 322 324 324 324 324 323 324 325 322 320 324 327 326 323 322 321 322 320 317 314 312 311 309 308 308 305 304 303 300 298 297 297 298 293 285 276 269
171 176 151 281 301 284 268 297 276 225 194 230 230 196 208 219 161 116 221 115 243 243 226 224 250 248 209 147 145 165 187 196 220 229 86 73 7 357 347 342 340 334 331 328 325 324 323 320 320 322 324 324 324 324 324 323 322 321 321 324 325 323 321 321 322 323 322 319 316 314 311 309 307 308 306 303 302 300 297 295 295 296 295 290 280 272
179 200 167 205 269 268 270 283 262 205 187 220 221 200 208 208 192 203 220 197 239 244 224 223 247 253 237 211 203 221 228 237 253 278 23 38 3 354 346 342 338 333 331 328 325 324 322 320 322 323 324 324 324 323 324 322 321 321 321 322 324 324 323 322 322 323 322 320 317 314 311 309 306 306 305 302 300 299 298 295 294 292 292 290 286 277
127 268 212 219 240 249 260 275 240 173 185 203 209 205 208 209 208 211 216 224 234 253 245 236 239 261 265 260 268 273 272 276 277 299 14 17 350 347 344 338 334 332 329 326 324 322 321 321 323 324 324 323 323 323 322 322 321 321 320 320 323 326 324 322 321 321 321 319 315 312 309 309 307 304 303 300 298 298 297 295 293 291 290 289 289 283
107 244 223 224 239 248 260 267 190 183 214 220 211 204 207 211 210 210 219 229 223 233 256 248 233 252 262 263 266 267 270 280 283 338 26 356 338 338 340 336 332 331 328 325 322 320 320 321 323 324 324 323 323 323 323 323 322 322 321 321 323 324 324 324 322 321 321 318 314 311 309 308 307 303 300 299 297 296 295 295 294 293 292 288 286 285
131 248 224 218 242 251 257 258 237 223 238 236 222 212 218 219 216 219 228 232 225 231 252 262 258 254 258 264 266 262 270 285 292 29 359 324 328 334 337 334 330 329 326 322 320 320 320 321 322 323 323 323 324 324 323 324 324 323 322 322 323 324 324 325 323 321 320 317 312 311 309 306 305 303 300 298 296 295 294 294 294 293 293 288 283 282
143 253 226 216 252 257 249 252 254 254 261 256 238 223 228 234 229 230 237 235 231 241 254 264 265 264 264 265 268 276 283 281 275 115 311 313 329 337 334 329 325 324 322 319 320 320 320 321 322 323 323 324 325 324 324 324 324 324 323 323 324 324 324 324 324 325 323 318 313 314 313 308 303 301 301 298 296 295 293 292 293 292 292 289 285 282
192 234 174 190 257 263 237 237 251 256 262 267 259 238 231 242 242 239 241 236 233 243 251 255 260 266 266 261 268 276 273 260 208 229 301 312 331 334 327 323 322 320 319 319 319 319 320 321 323 323 323 324 325 325 325 325 324 324 324 324 324 324 324 324 325 327 325 319 315 314 313 310 304 300 300 300 297 296 295 293 292 291 291 290 286 282
202 222 107 142 247 260 206 207 237 265 279 273 266 249 231 235 240 238 237 231 229 239 247 251 253 258 265 267 262 261 251 211 171 228 295 307 324 327 320 318 318 316 318 320 319 320 322 323 324 323 322 324 325 325 326 325 325 324 324 325 324 324 325 325 325 328 328 325 321 315 312 311 309 304 301 301 300 299 297 295 293 292 290 290 286 282
185 203 167 154 224 278 113 150 176 359 304 273 261 237 220 227 236 241 242 235 229 231 240 245 244 252 272 286 244 245 225 180 152 140 305 311 317 318 315 311 309 312 317 319 319 321 323 322 322 321 321 324 324 325 325 324 323 323 323 324 325 325 326 327 330 331 330 327 323 317 313 312 311 307 303 302 302 300 299 296 293 291 288 287 285 281
191 199 187 168 190 156 120 114 86 304 266 267 259 186 198 214 227 234 239 237 230 228 235 246 252 256 261 239 234 238 198 142 107 179 270 309 316 313 309 300 300 312 319 320 321 323 322 321 321 320 322 324 323 324 326 325 324 324 324 325 327 329 330 330 331 332 330 327 322 318 316 314 313 311 308 305 304 301 300 298 294 292 290 288 287 280
186 192 188 176 174 158 126 97 120 247 252 265 52 155 195 206 216 230 243 243 233 227 235 246 250 245 237 236 230 183 130 111 91 269 286 315 317 305 289 289 305 318 323 323 323 323 321 321 321 322 324 326 326 327 328 327 327 328 328 330 331 331 331 332 334 336 335 330 323 319 319 317 315 313 312 312 308 303 300 298 295 295 293 290 289 282
176 183 182 168 164 163 143 172 212 267 304 290 224 155 129 195 206 232 257 250 224 217 228 238 244 239 232 233 202 123 106 91 345 295 307 316 300 267 271 301 318 324 324 323 323 322 322 321 321 323 326 328 330 331 330 329 331 330 332 334 333 331 333 336 337 336 334 331 325 322 321 319 316 316 318 318 314 307 303 302 298 297 295 292 291 285
171 177 174 176 193 171 183 217 236 308 313 290 245 165 171 203 191 202 255 251 205 203 222 231 237 235 222 202 142 110 94 58 356 313 310 281 225 250 302 317 324 325 323 325 324 322 323 322 321 325 330 332 334 334 331 331 332 332 334 335 334 333 335 337 335 334 334 333 331 328 326 324 322 322 322 319 314 309 308 307 304 301 298 295 292 286
183 187 170 184 209 145 152 242 260 281 277 276 139 161 191 196 163 148 264 267 188 194 216 222 223 226 205 148 120 106 85 36 345 284 207 184 244 300 316 320 324 325 324 325 325 324 325 325 325 329 334 335 336 336 334 333 333 335 336 336 335 336 337 337 337 336 335 333 331 331 330 328 325 323 322 319 315 312 310 308 305 303 299 295 291 286
194 208 186 204 224 164 172 223 233 245 251 252 65 120 153 140 116 84 328 279 211 195 205 206 207 209 172 144 136 114 92 351 258 199 184 245 294 307 315 320 325 325 324 326 326 326 326 327 330 334 337 339 339 338 337 335 335 337 338 339 339 339 340 340 341 341 338 336 336 334 332 329 326 324 323 321 318 316 313 309 305 302 298 294 290 287
190 196 190 216 221 199 203 223 235 251 250 116 95 103 120 124 115 82 313 269 247 187 188 187 187 177 157 151 146 130 152 219 226 191 219 276 295 305 315 323 325 324 326 329 329 327 328 329 332 336 341 343 342 340 339 337 338 339 341 342 342 341 341 341 342 342 340 338 337 334 330 329 328 326 325 324 321 320 318 316 312 305 299 293 289 285
194 189 197 217 221 210 211 224 255 264 229 141 138 135 122 117 113 137 226 233 158 161 179 182 177 166 161 162 162 182 221 231 231 238 262 282 295 308 320 325 325 327 329 330 329 329 330 331 333 337 344 347 344 343 342 340 339 342 343 344 343 342 343 342 342 343 342 339 337 334 331 331 331 330 331 330 328 325 322 321 319 313 302 293 287 279
181 184 209 217 211 211 218 225 269 274 208 150 150 146 133 124 226 225 182 146 144 154 168 173 171 167 174 187 196 212 228 230 235 257 275 285 296 313 324 326 328 331 331 330 331 332 331 332 335 340 347 350 348 346 345 342 341 343 345 345 344 344 345 344 343 344 344 340 338 336 334 334 336 335 335 336 335 331 326 324 323 318 306 293 284 278
170 162 204 212 179 178 219 207 242 271 187 151 146 143 152 184 211 152 139 153 164 166 166 169 172 177 190 202 209 216 221 223 241 266 280 290 303 320 326 328 332 334 332 332 333 334 333 334 336 341 349 353 351 349 347 344 343 345 345 346 346 345 345 346 346 346 345 340 338 338 337 338 342 344 342 340 338 332 326 322 321 320 312 300 291 288
178 172 196 208 167 158 202 202 209 280 160 155 156 166 198 206 203 155 150 173 176 175 176 176 180 189 198 205 210 212 215 227 250 271 285 297 313 324 328 332 335 333 332 333 334 335 336 336 337 342 349 355 354 351 349 347 345 346 346 347 347 346 347 348 347 347 345 343 341 340 339 344 350 350 344 339 335 332 328 322 317 318 315 306 296 288
200 189 176 191 182 183 217 212 180 134 160 172 182 191 196 205 214 209 195 192 186 186 186 185 188 194 199 205 208 208 216 234 257 276 290 305 318 326 329 334 335 332 332 334 334 336 337 337 339 342 348 354 356 352 350 349 348 347 347 348 348 349 350 349 348 348 347 346 344 343 344 350 354 349 342 340 337 335 334 330 322 315 313 308 297 284
208 186 129 129 195 218 252 226 144 135 169 185 196 202 198 207 216 217 218 214 201 196 193 190 191 194 198 205 208 211 224 245 266 281 294 309 319 323 329 333 333 332 333 334 336 338 338 339 341 344 348 353 355 353 351 351 350 350 350 350 351 351 351 350 349 349 349 347 346 346 349 354 353 346 344 346 345 340 339 339 334 323 314 309 302 291
198 180 180 193 180 193 240 215 165 174 191 193 197 204 209 213 216 221 228 224 209 200 198 198 200 202 207 212 214 219 239 260 274 282 292 306 313 319 327 329 329 332 334 335 337 338 339 340 343 345 349 353 354 354 352 351 352 353 353 353 353 353 353 353 351 350 350 350 349 350 354 356 354 350 350 352 352 347 343 343 342 337 332 328 323 315
172 167 184 215 198 187 239 220 163 188 200 195 195 205 215 220 225 231 232 225 213 205 203 205 213 219 219 220 220 227 249 263 268 276 288 298 306 315 322 324 326 331 334 336 337 339 341 342 343 347 351 353 354 353 352 352 353 354 354 355 356 355 355 355 354 352 352 352 351 353 356 356 357 358 358 357 355 352 350 351 351 349 348 345 338 330
148 160 176 195 200 218 244 190 136 170 206 196 199 211 221 227 233 234 228 219 212 209 209 213 223 229 228 224 225 236 254 260 262 274 285 293 302 311 317 321 324 329 334 337 339 341 342 342 344 348 352 354 354 353 352 353 354 355 356 358 359 358 358 357 356 355 355 354 354 357 357 357 1 5 3 360 358 356 356 3 6 0 356 354 353 345
150 176 179 163 188 226 232 200 179 186 217 197 203 214 224 231 233 229 223 220 219 220 222 223 225 229 229 226 228 242 255 257 262 274 282 290 299 308 314 318 321 328 336 339 339 341 343 343 345 349 353 355 355 354 353 353 354 357 359 360 1 2 1 359 358 358 356 356 359 2 1 1 5 9 8 5 5 2 0 9 23 22 16 14 17 10
177 183 171 171 203 224 218 202 202 209 225 216 213 219 226 230 229 226 226 230 232 232 234 234 233 233 232 228 233 246 254 257 262 272 281 289 297 305 313 317 320 328 336 340 340 341 342 343 347 351 354 356 356 355 354 354 355 358 0 2 4 6 6 4 3 0 359 359 3 8 9 8 10 14 13 12 13 12 9 8 21 44 44 38 36 32